Home   Weather   Little Rock   Past weeks

Flag for USA Past Weather in Little Rock, Arkansas, USA — Yesterday and Last 2 Weeks

52 °F

Passing clouds.

Feels Like: 48 °F
Forecast: 49 / 69 °F
Wind: 13 mph from North

Location: Adams Field

Current Time: Oct 21, 2016 at 9:58:36 AM

Latest Report: Oct 21, 2016 at 8:53 AM

Visibility: 10 mi

Pressure: 30.29 "Hg

Humidity: 77%

Dew Point: 45 °F

Location of Little RockLocation

Past Weather in Little Rock — Graph


Little Rock Temperature Yesterday

Maximum temperature yesterday: 70 °F (at 7:53 AM)
Minimum temperature yesterday: 56 °F (at 11:53 PM)
Average temperature yesterday: 65 °F

High & Low Weather Summary for the Past Weeks

High87 °F (Oct 6, 1:53 PM)100% (Oct 7, 1:53 AM)30.39 "Hg (Oct 7, 1:53 AM)
Low48 °F (Oct 9, 6:53 AM)26% (Oct 8, 1:53 PM)29.78 "Hg (Oct 17, 5:53 PM)
Average68 °F78%30.10 "Hg
* Reported Oct 6 8:53 AM — Oct 21 8:53 AM, Little Rock, Weather by CustomWeather, © 2016

Note: Actual official high and low records may vary slightly from our data, if they occured in-between our weather recording intervals... More about our weather records


Little Rock Weather History for the Previous 24 Hours

Scroll right to see more
Time TempWeatherWind HumidityBarometerVisibility
8:53 AM
Fri, Oct 21
52 °FPassing clouds.13 mph77%30.29 "Hg10 mi
7:53 AM49 °FSunny.14 mph86%30.26 "Hg10 mi
6:53 AM48 °FPassing clouds.10 mph89%30.25 "Hg10 mi
5:53 AM49 °FClear.9 mph90%30.25 "Hg10 mi
4:53 AM50 °FClear.9 mph89%30.23 "Hg10 mi
3:53 AM51 °FClear.10 mph89%30.24 "Hg10 mi
2:53 AM53 °FClear.13 mph80%30.24 "Hg10 mi
1:53 AM52 °FClear.8 mph86%30.24 "Hg10 mi
12:53 AM52 °FClear.6 mph86%30.23 "Hg10 mi
11:53 PM
Thu, Oct 20
56 °FClear.9 mph75%30.24 "Hg10 mi
10:53 PM57 °FClear.9 mph78%30.23 "Hg10 mi
9:53 PM59 °FClear.10 mph75%30.21 "Hg9 mi
8:53 PM60 °FPassing clouds.13 mph72%30.18 "Hg10 mi
7:53 PM61 °FPassing clouds.10 mph70%30.16 "Hg10 mi
6:53 PM63 °FPassing clouds.10 mph68%30.15 "Hg10 mi
5:53 PM67 °FScattered clouds.8 mph61%30.13 "Hg9 mi
4:53 PM69 °FScattered clouds.14 mph59%30.11 "Hg10 mi
3:53 PM67 °FBroken clouds.15 mph71%30.11 "Hg10 mi
2:53 PM64 °FMostly cloudy.20 mph78%30.11 "Hg10 mi
1:53 PM63 °FMostly cloudy.22 mph84%30.09 "Hg10 mi
12:53 PM64 °FMostly cloudy.15 mph90%30.09 "Hg10 mi
11:53 AM64 °FMostly cloudy.18 mph94%30.09 "Hg10 mi
10:53 AM64 °FRain. Mostly cloudy.12 mph100%30.07 "Hg7 mi
9:53 AM68 °FHeavy rain. Fog.8 mph100%30.06 "Hg4 mi
Weather by CustomWeather, © 2016

See weather overviewHow to use our weather pages